Location: Maccacari
(45.1333°N, 11.1333°E)
Time: 03:35:28
(UTC+00:00)

Altair - Pass Details

Date: 01 February 2021
Orbit: 1501 x 1682 km, 47.2° (Epoch: 01 March)

Event Time Altitude Azimuth Distance (km) Brightness Sun altitude
Rises 05:48:15 0° 279° (W) 4,886 - -8.7°
Exits shadow 05:51:06 - 280° (W) 4,000 9.0 -8.2°
Reaches altitude 10° 05:51:22 10° 280° (W) 3,915 8.9 -8.2°
Maximum altitude 06:01:32 82° 9° (N) 1,698 7.8 -6.4°
Drops below altitude 10° 06:11:45 10° 98° (E) 3,934 11.4 -4.7°
Sets 06:14:54 0° 100° (E) 4,911 12.4 -4.2°
